Regional Weather Roundup
Issued by NWS

Home | Current Version | Previous Version | Graphics & Text | Print | Product List | Glossary On
Versions: 1 2 3 4 5 6 7 8 9 10 11 12 13 14 15 16 17 18 19 20 21 22 23 24 25 26 27 28 29 30 31 32 33 34 35 36 37 38 39 40 41 42 43 44 45 46 47 48 49 50
000
ASUS45 KBOU 170010
RWRCO

WEATHER ROUNDUP FOR COLORADO
NATIONAL WEATHER SERVICE DENVER/BOULDER CO
500 PM MST SAT DEC 16 2017

NOTE: "FAIR" INDICATES FEW OR NO CLOUDS BELOW 12000 FEET WITH NO
SIGNIFICANT WEATHER AND/OR OBSTRUCTIONS TO VISIBILITY.

COZ001>005-013-030-031-170100-
...NORTHWEST COLORADO...

CITY           SKY/WX    TMP DP  RH WIND       PRES   REMARKS
CRAIG          FAIR      27  17  66 CALM      29.78R
HAYDEN         FAIR      31  17  56 CALM      29.78R
MEEKER         FAIR      36  10  34 CALM      29.74R
RABBIT EARS PA MOCLDY    27  -8  22 SW7       29.80R WCI  19
STEAMBOAT SPGS FAIR      29  15  56 CALM      29.76R
WALDEN         CLOUDY    25  12  58 NE9       29.79R WCI  15
$$

COZ006>008-011-170100-
...WEST CENTRAL VALLEYS...

CITY           SKY/WX    TMP DP  RH WIND       PRES   REMARKS
GRAND JUNCTION FAIR      37  11  34 W5        29.78R
MONTROSE       FAIR      35   7  31 NW6       29.78R WCI  30
EAGLE          CLOUDY    26  14  60 W5        29.81S WCI  20
RIFLE          FAIR      37  10  32 CALM      29.76R
DELTA          FAIR      39   6  25 E5        29.77R
NUCLA          FAIR      43  -4  14 CALM      29.80R
$$

COZ017>023-064>068-170100-
...SOUTHWEST COLORADO...

CITY           SKY/WX    TMP DP  RH WIND       PRES   REMARKS
DURANGO        FAIR      42   9  25 SW5       29.76S
CORTEZ         FAIR      36  12  37 CALM      29.79R
PAGOSA SPRINGS FAIR      42  -2  16 SW3       29.78S
TELLURIDE      FAIR      36  -7  16 W3        29.82S
WOLF CREEK PAS FAIR      23   5  46 SW14      29.90S WCI  11
$$

COZ009-010-012-014-032>034-037-058>063-170100-
...CENTRAL COLORADO...

CITY           SKY/WX    TMP DP  RH WIND       PRES   REMARKS
ASPEN          FAIR      31  15  52 SW5       29.75S WCI  26
BUENA VISTA    FAIR      29  18  63 W6        29.78R WCI  23
COPPER MTN     NOT AVBL
BERTHOUD PASS  FAIR      18   5  57 S15       29.87R WCI   3
COTTONWOOD PAS FAIR      37  10  32 E7        29.83R
GUNNISON       FAIR      28   9  44 CALM      29.81R
KREMMLING      FAIR      27  16  63 CALM      29.81R
LEADVILLE      FAIR      31   3  30 CALM      29.79R
MONARCH PASS   FAIR      27   5  39 NE25      29.94F WCI  11
SALIDA         FAIR      43   5  21 E8        29.84R
SUNLIGHT       CLOUDY    28  -6  22 SW3       29.85R
WILKERSON PASS FAIR      23   3  42 SE12G17   29.89S WCI  12
$$

COZ069>075-170100-
...SAN LUIS VALLEY/SANGRE DE CRISTO MOUNTAINS...

CITY           SKY/WX    TMP DP  RH WIND       PRES   REMARKS
ALAMOSA        FAIR      31  14  49 W3        29.74R
DEL NORTE      FAIR      28  12  50 CALM      29.76R
LA VETA PASS   FAIR      27   5  39 NE22G31     N/A  WCI  12
SAGUACHE       FAIR      30   7  37 NW3       29.76R
$$

COZ035-036-038>040-170100-
...NORTHERN COLORADO FRONT RANGE...

CITY           SKY/WX    TMP DP  RH WIND       PRES   REMARKS
DENVER INTL AP MOCLDY    36  14  40 E10       29.82R
DMNS CITY PARK NOT AVBL
AURORA         MOCLDY    35  14  41 E7        29.83R WCI  29
FRONT RANGE AP MOCLDY    36  18  48 NE10      29.84R
ERIE MUNI ARPT FAIR      38  14  37 CALM      29.88R
BOULDER MUN AP FAIR      41  16  36 NW3       29.83R
CENTENNIAL     FAIR      40  14  34 E3        29.82R
BROOMFIELD     MOCLDY    41  12  30 N8        29.83R
FORT COLLINS   FAIR      40  18  41 E12       29.84R
LONGMONT       FAIR      40  16  38 CALM      29.85S
$$

COZ041-046-047-076>085-087-088-170100-
...PIKES PEAK/PALMER DIVIDE AND SOUTHERN FOOTHILLS...

CITY           SKY/WX    TMP DP  RH WIND       PRES   REMARKS
COLO. SPRINGS  FAIR      37   9  31 N10       29.82R
A. F. ACADEMY  FAIR      36   9  32 N9        29.81R
SCHRIEVER AFB  FAIR      38   8  29 N9        29.81R
CHEYENNE MTN   FAIR      39   8  26 NW8       29.76
ELLICOTT         N/A    N/A N/A N/A NE8       29.79R
FALCON         FAIR      33   8  34 N8        29.83R WCI  26
FORT CARSON    FAIR      40   9  27 NE10      29.79R
LIMON          FAIR      30  13  49 N8        29.82R WCI  22
MONUMENT HILL  FAIR      32  12  43 N3        29.85R
CANON CITY     FAIR      46  10  23 NE10      29.76S
WALSENBURG     FAIR      39   7  26 N8        29.77R
TRINIDAD       FAIR      43  13  29 N7        29.74R
$$

COZ042>045-048>051-090-091-170100-
...NORTHEAST COLORADO...

CITY           SKY/WX    TMP DP  RH WIND       PRES   REMARKS
GREELEY ARPT   FAIR      39  20  46 E8        29.85R
AKRON          FAIR      34  23  64 NE12      29.85R WCI  25
BURLINGTON     FAIR      39  20  46 NE12      29.79R
WRAY           FAIR      37  28  70 NE12      29.85R
YUMA           FAIR      36  27  69 NE10      29.85R
STERLING       FAIR      37  27  65 NE8       29.86R
HOLYOKE        FAIR      37  32  81 NE13      29.88R
FORT MORGAN    FAIR      36  22  56 NE10      29.85R
$$

COZ086-089-092>099-170100-
...SOUTHEAST COLORADO...

CITY           SKY/WX    TMP DP  RH WIND       PRES   REMARKS
PUEBLO         FAIR      46   8  21 N13       29.76R
LA JUNTA       FAIR      48  14  25 NE15      29.72R
LAMAR          FAIR      42  15  33 NE9       29.69R
SPRINGFIELD      N/A     36  14  40 S10       29.69R
$$



USA.gov is the U.S. government's official web portal to all federal, state and local government web resources and services.